SCP
0 0 0 0 0 0 0 0 0 0 0 0 0 0 0 0 0 0 0 0 0 0 0 0 0 0 0 0 0 0 0 0 0 0 0 0 0 0 0 0 0 0 0
0 0 0 0 0 0 0 0 0 0 0 0 0 0 0 0 0 0 0 0 0 0 0 0 0 0 0 0 0 0 0 0 0 0 0 0 0 0 0 0 0 0 0
0 0 0 0 0 0 0 0 0 0 0 0 0 0 0 0 0 0 0 -0 0 0 0 0 0 0 0 0 0 0 0 0 0 0 0 0 0 0 0 0 0 0 0
0 0 0 0 0 0 0 0 0 0 0 0 0 0 0 0 0 0 0 0 0 0 0 0 0 0 0 0 0 0 0 0 0 0 0 0 0 0 0 0 0 0 0
0 0 0 0 0 0 0 0 0 0 0 0 0 0 0 0 0 0 0 0 0 0 0 0 0 0 0 0 0 0 0 0 0 0 0 0 0 0 0 0 0 0 0
0 0 0 0 0 0 0 0 0 0 0 0 0 0 -0 -0 0 0 0 0 0 0 0 0 0 0 0 0 0 0 0 0 0 0 0 0 0 0 0 0 0 0 0
0 0 0 0 0 0 0 0 0 0 0 0 -0 -0 -0 -0 -0 0 0 0 0 0 0 0 0 0 0 0 0 0 0 0 0 0 0 0 0 0 0 0 0 0 0
0 0 0 0 0 0 0 0 0 0 0 0 -0 -0 -0 -0 -0 -0 0 0 0 0 0 0 0 0 0 0 0 0 0 0 0 0 0 0 0 0 0 0 0 0 0
0 0 0 0 0 0 0 0 0 0 0 0 0 -0 -0 -0 -0 -0 -0 0 0 0 0 0 0 0 0 0 0 0 0 0 0 0 0 0 0 0 0 0 0 0 0
0 0 0 0 0 0 0 0 0 0 0 0 0 -0 -0 -0 0 0 -0 -0 0 0 0 0 0 0 0 0 0 0 0 0 0 0 0 0 0 0 0 0 0 0 0
0 0 0 0 0 0 0 0 0 0 0 0 0 0 -0 0 0 0 0 -0 0 0 0 0 0 0 0 0 0 0 0 0 0 0 0 0 0 0 0 0 0 0 0
0 0 0 0 0 0 0 0 0 0 0 0 0 0 0 0 0 0 0 0 -0 -0 -0 0 0 0 0 0 0 0 0 0 0 0 0 0 0 0 0 0 0 0 0
0 0 0 0 0 0 0 0 0 0 0 0 0 0 0 0 0 0 -0 -0 0 0 0 0 0 0 0 0 0 0 0 0 0 0 0 0 0 0 0 0 0 0 0
0 0 0 0 0 0 0 0 0 0 0 0 0 0 0 0 0 0 0 -0 -0 0 0 0 0 0 0 0 0 0 0 0 0 0 0 0 0 0 0 0 0 0 0
0 0 0 0 0 0 0 0 0 0 0 0 0 0 0 0 0 0 0 0 0 0 0 0 0 0 0 0 0 0 0 0 0 0 0 0 0 0 0 0 0 0 0
0 0 0 0 0 0 0 0 0 0 0 0 0 0 0 0 0 0 0 0 0 0 0 0 0 0 0 0 0 0 0 0 0 0 0 0 0 0 0 0 0 0 0
0 0 0 0 0 0 0 0 0 0 0 0 0 0 0 0 0 0 0 0 0 0 0 0 0 0 0 0 0 0 0 0 0 0 0 0 0 0 0 0 0 0 0
0 0 0 0 0 0 0 0 0 0 0 0 0 0 0 0 0 0 0 0 0 0 0 0 0 0 0 0 0 0 0 0 0 0 0 0 0 0 0 0 0 0 0
0 0 0 0 0 0 0 0 0 0 0 0 0 0 0 0 0 0 0 0 0 0 0 0 0 0 0 0 0 0 0 0 0 0 0 0 0 0 0 0 0 0 0
0 0 0 0 0 0 0 0 0 0 0 0 0 0 0 0 0 0 0 0 0 0 0 0 0 0 0 0 0 0 0 0 0 0 0 0 0 0 0 0 0 0 0
0 0 0 0 0 0 0 0 0 0 0 0 0 0 0 0 0 0 0 0 0 0 0 0 0 0 0 0 0 0 0 0 0 0 0 0 0 0 0 0 0 0 0
0 0 0 0 0 0 0 0 0 0 0 0 0 0 0 0 0 0 0 0 0 0 0 0 0 0 0 0 0 0 0 0 0 0 0 0 0 0 0 0 0 0 0
0 0 0 0 0 0 0 0 0 0 0 0 0 0 0 0 0 0 0 0 0 0 0 0 0 0 0 0 0 0 0 0 0 0 0 0 0 0 0 0 0 0 0
0 0 0 0 0 0 0 0 0 0 0 0 0 0 0 0 0 0 0 0 0 0 0 0 0 0 0 0 0 0 0 0 0 0 0 0 0 0 0 0 0 0 0
0 0 0 0 0 0 0 0 0 0 0 0 0 0 0 0 0 0 0 0 0 0 0 0 0 0 0 0 0 0 0 0 0 0 0 0 0 0 0 0 0 0 0
0 0 0 0 0 0 0 0 0 0 0 0 0 0 0 0 0 0 0 0 0 0 0 0 0 0 0 0 0 0 0 0 0 0 0 0 0 0 0 0 0 0 0
Wind_Speed
4 4 3 2 3 2 3 2 2 2 1 2 3 4 4 4 4 4 3 11 12 12 13 14 13 13 13 13 12 12 12 12 11 10 10 11 11 11 11 10 10 9 8
4 4 4 3 3 3 3 3 3 2 2 2 2 3 4 4 4 4 4 6 11 11 11 13 13 13 13 13 13 13 12 12 11 11 11 10 10 11 11 11 10 9 9
5 4 4 3 3 2 3 2 2 2 2 2 2 2 2 3 4 5 4 3 4 9 11 11 12 13 13 14 14 13 13 12 12 12 11 11 10 10 10 10 10 10 9
5 4 3 3 3 3 3 3 2 2 2 1 1 1 1 2 3 4 3 3 3 4 6 10 10 11 12 13 14 14 13 13 12 12 12 12 11 11 10 11 11 10 10
5 4 3 3 3 3 3 3 2 2 2 1 1 1 1 2 2 3 3 3 3 3 3 6 9 10 11 12 13 13 13 13 13 13 13 13 13 12 11 11 11 11 11
5 4 3 3 4 3 2 2 3 2 1 1 0 0 1 1 1 2 3 3 3 4 3 3 3 5 9 9 10 11 11 12 12 13 13 14 14 13 12 12 12 12 12
5 4 3 3 4 3 3 3 3 2 1 1 2 2 3 1 1 1 1 1 2 2 3 3 2 2 2 6 7 8 9 10 10 11 12 13 13 13 13 13 13 13 13
5 5 5 4 4 3 3 3 3 2 1 1 3 2 2 4 3 1 0 2 2 1 2 3 2 2 2 1 4 7 8 9 9 9 10 11 11 12 12 14 14 13 13
5 5 5 4 4 4 3 3 3 4 2 1 1 4 3 2 2 3 2 1 1 1 2 2 3 3 3 2 2 4 6 6 7 8 8 9 9 10 11 12 13 14 14
5 5 6 5 4 4 4 3 3 3 3 1 1 1 2 4 3 1 3 2 1 1 2 2 2 3 3 2 3 5 6 5 5 5 5 6 7 8 10 11 13 13 14
4 5 5 5 5 4 4 4 4 3 3 3 2 1 2 2 2 3 1 3 3 2 2 2 2 2 3 3 3 4 6 5 5 5 5 5 6 7 8 10 12 13 14
2 4 5 5 5 4 4 4 4 5 3 3 2 2 2 2 2 2 2 1 2 3 2 2 2 2 2 3 4 7 7 7 6 5 5 5 5 6 7 8 10 12 13
3 4 5 5 4 4 5 5 4 4 4 4 3 2 2 2 2 3 3 1 1 3 3 2 2 2 2 2 3 6 6 7 7 7 6 6 6 6 7 7 9 10 11
4 5 5 5 5 5 5 4 3 3 3 3 3 3 2 1 2 3 3 3 1 2 3 3 2 1 2 2 4 6 4 7 8 9 9 9 8 8 8 8 8 9 9
5 6 6 6 6 6 5 5 3 3 3 3 3 3 2 1 1 1 2 3 4 1 2 4 3 2 2 2 4 4 4 7 9 9 10 10 10 10 10 10 10 9 9
6 7 6 6 6 6 6 5 3 3 4 3 2 3 2 1 1 1 2 2 3 4 3 3 3 3 2 3 5 4 5 9 10 10 10 11 11 12 12 12 12 11 11
7 7 7 7 6 6 6 5 4 4 5 4 3 4 4 3 2 2 1 2 2 3 3 4 3 2 2 3 3 3 5 5 5 10 11 12 12 12 13 13 13 13 12
7 7 7 7 7 7 6 6 6 5 5 5 5 4 5 4 4 3 2 2 2 3 4 4 3 3 4 4 4 4 5 5 5 9 12 12 12 13 13 13 13 13 13
7 7 7 8 7 7 7 7 7 6 6 6 6 6 6 5 5 4 4 4 3 3 3 4 4 3 3 3 3 4 4 4 5 7 9 10 11 12 12 13 13 14 14
8 8 8 8 7 7 7 7 6 6 6 6 6 6 6 6 7 6 5 5 4 4 3 3 4 4 4 4 2 3 4 3 4 5 6 7 8 10 12 13 13 14 14
9 8 7 7 7 6 7 7 7 7 6 6 6 6 7 8 9 8 6 6 5 4 4 4 4 4 4 3 4 3 4 4 4 4 4 5 4 4 6 9 11 13 14
6 7 7 8 8 7 9 12 9 7 6 7 6 6 6 7 10 12 12 11 9 7 6 5 5 6 7 6 4 4 4 3 5 3 3 5 3 5 6 5 10 14 15
6 6 7 7 8 8 11 12 13 8 7 7 7 6 6 6 7 6 9 11 11 13 12 8 8 9 8 7 5 5 5 6 7 5 2 5 4 6 6 8 13 15 15
6 6 6 6 6 7 10 10 11 8 6 6 7 7 7 7 6 6 6 6 7 8 10 9 9 10 10 8 7 8 7 6 6 5 4 5 6 6 7 6 12 15 15
5 5 4 5 5 5 8 9 8 4 5 6 6 6 6 7 8 8 5 6 7 8 10 12 13 14 15 15 11 4 4 4 6 6 5 5 5 5 5 7 9 14 15
5 5 4 4 5 5 6 7 8 4 5 5 5 5 7 7 8 7 5 6 8 9 7 7 8 10 11 13 14 10 8 7 6 6 5 5 5 4 4 5 6 6 7
Wind_Direction
163 166 169 172 179 177 176 180 178 166 158 146 143 139 144 151 167 170 193 198 196 194 190 189 189 190 189 188 189 188 187 185 183 181 180 179 177 175 174 172 171 168 166
157 159 158 164 176 178 174 168 161 150 148 134 126 139 149 156 170 181 193 206 204 201 201 200 199 199 198 197 197 197 196 195 192 190 190 189 187 185 182 181 180 179 178
150 152 154 159 171 164 151 134 124 118 122 113 116 139 156 168 170 183 188 198 208 210 208 209 207 205 205 204 204 205 204 203 200 198 197 196 194 193 192 190 189 188 187
144 140 146 157 154 137 132 128 120 106 96 104 124 168 166 187 187 189 183 192 200 210 218 217 213 211 211 212 212 211 211 210 208 206 203 201 201 201 201 200 198 195 194
140 137 148 149 133 123 132 139 119 123 120 132 180 178 190 197 199 193 191 193 197 202 205 222 218 216 217 219 220 219 216 214 213 212 210 208 207 206 206 207 205 202 201
141 135 141 137 129 122 121 119 119 107 127 158 188 43 267 229 200 190 196 184 190 198 197 209 214 225 225 225 225 226 225 223 221 218 217 216 215 211 210 211 211 210 209
142 137 137 135 133 134 143 137 121 102 83 103 74 13 351 348 246 217 195 171 182 193 187 195 196 205 234 231 227 226 230 231 229 226 223 223 222 218 215 215 215 215 215
150 147 143 142 137 128 125 124 120 115 91 109 122 95 19 353 344 331 233 183 184 170 184 195 194 202 220 217 227 227 231 236 238 234 229 226 226 226 225 221 219 219 219
152 145 147 140 140 136 141 139 133 131 131 35 121 138 139 208 304 333 331 313 212 185 199 195 196 207 206 201 219 231 228 233 239 241 236 232 228 227 228 229 227 224 224
150 149 143 140 140 139 140 143 127 129 128 109 38 74 146 154 141 336 330 331 311 248 246 230 195 196 196 194 206 215 219 221 229 240 245 240 235 233 233 235 237 234 231
151 150 143 139 139 138 138 130 118 117 122 133 132 105 77 70 97 129 282 322 334 308 276 257 230 208 199 192 195 207 206 209 219 233 247 253 250 245 246 246 248 246 242
152 153 144 143 145 140 140 139 132 128 123 116 113 113 126 126 138 136 166 260 293 297 297 284 259 231 214 200 210 203 203 207 216 227 240 252 259 263 262 258 256 255 253
169 173 154 152 149 150 147 140 136 136 136 132 138 135 132 149 154 142 139 177 295 305 325 318 280 254 230 205 221 208 209 211 223 234 242 248 255 261 266 270 267 263 261
180 173 165 160 156 156 153 143 141 153 144 145 150 146 140 154 152 154 155 144 82 330 330 305 309 279 248 222 229 215 220 226 233 239 242 246 250 255 260 265 268 270 267
178 171 169 162 159 158 155 148 149 160 154 158 158 158 157 169 148 159 155 152 151 178 283 289 301 300 282 247 238 219 229 240 242 244 245 247 250 253 254 257 259 260 261
175 167 170 166 163 163 160 154 155 166 164 177 174 166 180 193 173 155 151 153 154 163 221 264 263 277 283 270 241 230 239 248 249 251 251 251 253 255 254 253 253 255 255
172 172 173 171 171 172 169 164 174 173 182 197 197 190 208 202 200 200 167 157 164 160 207 267 267 279 285 281 280 260 256 251 255 256 256 255 256 257 257 255 253 252 252
175 176 174 175 181 182 180 179 189 190 192 202 210 204 218 214 214 217 204 206 205 192 194 246 274 278 268 265 265 267 262 253 249 259 259 258 258 259 259 257 255 253 252
178 179 177 181 186 186 188 193 195 197 201 207 209 209 217 208 219 222 217 219 223 219 199 217 255 258 267 270 279 281 274 270 264 263 260 260 261 262 261 258 255 253 252
179 183 185 188 189 189 193 198 199 203 209 213 212 212 213 208 216 220 222 223 222 227 225 228 250 261 264 270 259 268 285 274 270 272 270 267 264 266 265 264 260 257 254
188 186 187 192 193 193 201 200 205 210 213 220 223 221 221 220 219 217 219 217 213 220 226 233 249 261 262 263 252 246 259 272 272 254 264 268 268 268 270 268 265 259 255
192 186 193 196 200 208 209 204 201 210 211 217 227 233 237 234 235 232 232 225 210 213 222 229 240 242 251 244 245 244 248 263 278 259 231 263 256 263 263 257 259 258 257
191 192 198 197 206 216 213 210 208 204 211 216 221 229 242 240 234 235 243 245 239 233 224 221 234 244 248 241 235 247 241 237 247 246 223 266 258 261 261 263 260 257 257
195 199 204 206 209 221 216 217 218 215 220 224 223 223 231 243 241 231 237 247 248 246 237 231 233 245 246 243 230 236 245 253 258 254 210 252 261 256 263 258 259 258 258
194 199 199 203 208 223 218 219 213 213 230 239 238 236 234 241 250 243 237 248 259 262 256 244 238 244 247 248 242 239 244 243 263 262 209 219 252 258 260 258 259 257 255
194 190 198 205 209 218 216 214 207 209 230 244 250 247 240 242 254 251 237 243 256 262 265 271 259 258 256 257 249 232 230 238 248 260 230 209 242 242 269 258 252 253 255